When you browse on this site, cookies collect data to enhance your experience and personalize the content and advertising you see.
Visit our Privacy Policy to learn more. By continuing to use the site, you agree to this use of cookies and data.
  • In Hungary
  • List of Countries
  • For 7 days
  • Water Temperature
  • Satellite Maps
  • Weather Map
  • News
  • Weather Widgets
  • user-avatar
    Login

    Hourly Weather Ersola

    Today, 20 November, Tuesday

    Time Temperature Precipitation Wind Pressure Humidity
    00:00 -4°C° 0 mm 3 mps 754 mmHg 91%
    01:00 -4°C° 0 mm 3 mps 754 mmHg 91%
    02:00 -4°C° 0 mm 2 mps 753 mmHg 91%
    03:00 -4°C° 0 mm 2 mps 753 mmHg 94%
    04:00 -5°C° 0 mm 2 mps 753 mmHg 94%
    05:00 -5°C° 0 mm 2 mps 753 mmHg 94%
    06:00 -5°C° 0 mm 2 mps 753 mmHg 94%
    07:00 -5°C° 0 mm 2 mps 753 mmHg 93%
    08:00 -5°C° 0 mm 2 mps 753 mmHg 91%
    09:00 -5°C° 0 mm 2 mps 752 mmHg 89%
    10:00 -4°C° 0 mm 2 mps 752 mmHg 86%
    11:00 -4°C° 0 mm 2 mps 752 mmHg 83%
    12:00 -4°C° 0 mm 2 mps 752 mmHg 80%
    13:00 -4°C° 0 mm 2 mps 751 mmHg 81%
    14:00 -4°C° 0 mm 2 mps 751 mmHg 81%
    15:00 -4°C° 0 mm 2 mps 750 mmHg 81%
    16:00 -5°C° 0 mm 3 mps 749 mmHg 82%
    17:00 -5°C° 0 mm 3 mps 749 mmHg 82%
    18:00 -5°C° 0 mm 3 mps 748 mmHg 83%
    19:00 -5°C° 0 mm 3 mps 748 mmHg 83%
    20:00 -5°C° 0 mm 4 mps 747 mmHg 83%
    21:00 -5°C° 0 mm 4 mps 746 mmHg 84%
    22:00 -7°C° 0 mm 4 mps 746 mmHg 83%
    23:00 -7°C° 0 mm 4 mps 745 mmHg 82%

    Tomorrow, 21 November, Wednesday

    Time Temperature Precipitation Wind Pressure Humidity
    00:00 -7°C° 0 mm 4 mps 745 mmHg 82%
    01:00 -7°C° 0 mm 4 mps 744 mmHg 81%
    02:00 -7°C° 0 mm 4 mps 743 mmHg 80%
    03:00 -7°C° 0 mm 5 mps 743 mmHg 80%
    04:00 -6°C° 0.1 mm 5 mps 742 mmHg 81%
    05:00 -6°C° 0.1 mm 5 mps 742 mmHg 82%
    06:00 -6°C° 0.1 mm 5 mps 742 mmHg 84%
    07:00 -6°C° 0.1 mm 5 mps 741 mmHg 84%
    08:00 -5°C° 0.1 mm 5 mps 741 mmHg 84%
    09:00 -5°C° 0.1 mm 5 mps 741 mmHg 84%
    10:00 -4°C° 0.1 mm 6 mps 741 mmHg 82%
    11:00 -4°C° 0.1 mm 6 mps 741 mmHg 80%
    12:00 -3°C° 0.1 mm 6 mps 741 mmHg 78%
    13:00 -4°C° 0.1 mm 6 mps 741 mmHg 76%
    14:00 -5°C° 0.1 mm 5 mps 741 mmHg 75%
    15:00 -6°C° 0.1 mm 5 mps 741 mmHg 73%
    16:00 -6°C° 0 mm 5 mps 741 mmHg 74%
    17:00 -7°C° 0 mm 5 mps 742 mmHg 75%
    18:00 -7°C° 0 mm 5 mps 742 mmHg 77%
    19:00 -8°C° 0 mm 5 mps 742 mmHg 78%
    20:00 -8°C° 0 mm 5 mps 742 mmHg 78%
    21:00 -8°C° 0 mm 4 mps 742 mmHg 79%
    22:00 -8°C° 0 mm 4 mps 741 mmHg 81%
    23:00 -8°C° 0 mm 4 mps 741 mmHg 83%

    Day after tomorrow, 22 November, Thursday

    Time Temperature Precipitation Wind Pressure Humidity
    00:00 -9°C° 0 mm 4 mps 741 mmHg 84%
    01:00 -8°C° 0 mm 4 mps 741 mmHg 86%
    02:00 -8°C° 0 mm 4 mps 740 mmHg 88%
    03:00 -8°C° 0 mm 4 mps 740 mmHg 89%
    04:00 -7°C° 0.1 mm 3 mps 740 mmHg 90%
    05:00 -7°C° 0.1 mm 3 mps 740 mmHg 92%
    06:00 -6°C° 0.1 mm 2 mps 739 mmHg 93%
    07:00 -7°C° 0.2 mm 3 mps 739 mmHg 92%
    08:00 -7°C° 0.2 mm 3 mps 739 mmHg 91%
    09:00 -6°C° 0.2 mm 3 mps 738 mmHg 89%
    10:00 -7°C° 0.2 mm 4 mps 737 mmHg 88%
    11:00 -5°C° 0.2 mm 4 mps 737 mmHg 87%
    12:00 -5°C° 0.2 mm 4 mps 736 mmHg 86%
    13:00 -6°C° 0.4 mm 5 mps 735 mmHg 86%
    14:00 -6°C° 0.4 mm 5 mps 734 mmHg 87%
    15:00 -6°C° 0.4 mm 6 mps 733 mmHg 88%
    16:00 -6°C° 0.3 mm 5 mps 733 mmHg 89%
    17:00 -6°C° 0.3 mm 5 mps 732 mmHg 90%
    18:00 -6°C° 0.3 mm 5 mps 732 mmHg 90%
    19:00 -5°C° 0.2 mm 4 mps 731 mmHg 88%
    20:00 -7°C° 0.2 mm 4 mps 731 mmHg 86%
    21:00 -7°C° 0.2 mm 4 mps 731 mmHg 83%
    22:00 -8°C° 0 mm 4 mps 730 mmHg 85%
    23:00 -7°C° 0 mm 3 mps 730 mmHg 87%

    23 November, Friday

    Time Temperature Precipitation Wind Pressure Humidity
    00:00 -7°C° 0 mm 2 mps 730 mmHg 89%
    01:00 -8°C° 0.2 mm 3 mps 730 mmHg 89%
    02:00 -9°C° 0.2 mm 4 mps 731 mmHg 89%
    03:00 -10°C° 0.2 mm 5 mps 732 mmHg 88%
    04:00 -10°C° 0.1 mm 6 mps 733 mmHg 87%
    05:00 -10°C° 0.1 mm 6 mps 734 mmHg 85%
    06:00 -11°C° 0.1 mm 6 mps 735 mmHg 83%
    07:00 -11°C° 0 mm 6 mps 736 mmHg 83%
    08:00 -11°C° 0 mm 6 mps 738 mmHg 83%
    09:00 -11°C° 0 mm 6 mps 739 mmHg 83%
    10:00 -11°C° 0 mm 6 mps 740 mmHg 81%
    11:00 -11°C° 0 mm 6 mps 741 mmHg 79%
    12:00 -11°C° 0 mm 6 mps 742 mmHg 77%
    13:00 -11°C° 0 mm 6 mps 742 mmHg 78%
    14:00 -11°C° 0 mm 5 mps 743 mmHg 79%
    15:00 -12°C° 0 mm 5 mps 743 mmHg 80%
    16:00 -12°C° 0 mm 5 mps 743 mmHg 81%
    17:00 -12°C° 0 mm 5 mps 743 mmHg 82%
    18:00 -13°C° 0 mm 5 mps 744 mmHg 83%
    19:00 -12°C° 0 mm 5 mps 744 mmHg 83%
    20:00 -12°C° 0 mm 5 mps 744 mmHg 83%
    21:00 -11°C° 0 mm 5 mps 743 mmHg 83%
    22:00 -11°C° 0.1 mm 5 mps 743 mmHg 84%
    23:00 -11°C° 0.1 mm 5 mps 743 mmHg 84%

    24 November, Saturday

    Time Temperature Precipitation Wind Pressure Humidity
    00:00 -10°C° 0.1 mm 5 mps 743 mmHg 85%
    01:00 -10°C° 0 mm 5 mps 743 mmHg 86%
    02:00 -10°C° 0 mm 5 mps 743 mmHg 87%
    03:00 -10°C° 0 mm 5 mps 743 mmHg 88%
    04:00 -10°C° 0.1 mm 5 mps 743 mmHg 88%
    05:00 -8°C° 0.1 mm 5 mps 743 mmHg 88%
    06:00 -8°C° 0.1 mm 5 mps 743 mmHg 88%
    07:00 -7°C° 0.1 mm 5 mps 743 mmHg 88%
    08:00 -7°C° 0.1 mm 5 mps 742 mmHg 88%
    09:00 -6°C° 0.1 mm 6 mps 742 mmHg 88%
    10:00 -6°C° 0.1 mm 6 mps 742 mmHg 87%
    11:00 -6°C° 0.1 mm 6 mps 742 mmHg 86%
    12:00 -7°C° 0.1 mm 7 mps 742 mmHg 85%
    13:00 -6°C° 0.1 mm 6 mps 742 mmHg 84%
    14:00 -6°C° 0.1 mm 6 mps 742 mmHg 83%
    15:00 -8°C° 0.1 mm 6 mps 742 mmHg 82%
    16:00 -6°C° 0 mm 6 mps 742 mmHg 83%
    17:00 -6°C° 0 mm 6 mps 741 mmHg 84%
    18:00 -6°C° 0 mm 6 mps 741 mmHg 85%
    19:00 -6°C° 0 mm 6 mps 741 mmHg 85%
    20:00 -6°C° 0 mm 6 mps 741 mmHg 85%
    21:00 -6°C° 0 mm 6 mps 741 mmHg 86%
    22:00 -6°C° 0 mm 5 mps 741 mmHg 86%
    23:00 -6°C° 0 mm 5 mps 741 mmHg 86%

    25 November, Sunday

    Time Temperature Precipitation Wind Pressure Humidity
    00:00 -6°C° 0 mm 5 mps 741 mmHg 86%
    01:00 -6°C° 0 mm 5 mps 741 mmHg 86%
    02:00 -6°C° 0 mm 5 mps 741 mmHg 87%
    03:00 -6°C° 0 mm 5 mps 741 mmHg 87%
    04:00 -6°C° 0.1 mm 5 mps 740 mmHg 87%
    05:00 -7°C° 0.1 mm 5 mps 740 mmHg 87%
    06:00 -7°C° 0.1 mm 5 mps 740 mmHg 88%
    07:00 -6°C° 0.1 mm 5 mps 740 mmHg 88%
    08:00 -6°C° 0.1 mm 5 mps 740 mmHg 88%
    09:00 -6°C° 0.1 mm 5 mps 740 mmHg 88%
    10:00 -6°C° 0.1 mm 5 mps 740 mmHg 87%
    11:00 -6°C° 0.1 mm 5 mps 741 mmHg 86%
    12:00 -5°C° 0.1 mm 5 mps 741 mmHg 85%
    13:00 -4°C° 0.1 mm 4 mps 741 mmHg 86%
    14:00 -4°C° 0.1 mm 4 mps 742 mmHg 87%
    15:00 -4°C° 0.1 mm 4 mps 742 mmHg 87%
    16:00 -5°C° 0 mm 3 mps 743 mmHg 89%
    17:00 -6°C° 0 mm 3 mps 744 mmHg 91%
    18:00 -6°C° 0 mm 3 mps 744 mmHg 92%
    19:00 -6°C° 0 mm 2 mps 744 mmHg 93%
    20:00 -7°C° 0 mm 2 mps 745 mmHg 94%
    21:00 -8°C° 0 mm 2 mps 745 mmHg 94%
    22:00 -9°C° 0 mm 2 mps 745 mmHg 95%
    23:00 -9°C° 0 mm 2 mps 745 mmHg 95%
    Show more